SV1JSO-13 Weather Reports


time (UTC)temp
C
wind
direction
speed
KPH
gust
KPH
rain 1hr
cm
rain 24hr
cm
rain mn
cm
humidity
%
barometer
mb
20260906104000 31 206 6.4 8.0 0.00 0.00 0.00 42 1011.3
20260906103500 31 258 6.4 9.7 0.00 0.00 0.00 45 1011.3
20260906103000 31 214 8.0 9.7 0.00 0.00 0.00 40 1011.2
20260906102500 30 220 9.7 11.3 0.00 0.00 0.00 46 1011.3
20260906102000 30 288 8.0 9.7 0.00 0.00 0.00 43 1011.3
20260906101500 30 245 4.8 6.4 0.00 0.00 0.00 47 1011.3
20260906101000 30 290 9.7 11.3 0.00 0.00 0.00 44 1011.4
20260906100500 30 278 8.0 9.7 0.00 0.00 0.00 40 1011.3
20260906100000 31 245 6.4 8.0 0.00 0.00 0.00 36 1011.3
20260906095500 31 262 9.7 9.7 0.00 0.00 0.00 41 1011.2
20260906095000 31 279 4.8 6.4 0.00 0.00 0.00 42 1011.3
20260906094500 31 284 3.2 6.4 0.00 0.00 0.00 40 1011.4
20260906094000 31 333 1.6 3.2 0.00 0.00 0.00 43 1011.4
20260906093500 31 185 6.4 9.7 0.00 0.00 0.00 40 1011.5
20260906093000 30 248 6.4 6.4 0.00 0.00 0.00 42 1011.4
20260906092500 30 294 8.0 9.7 0.00 0.00 0.00 41 1011.5
20260906092000 30 253 8.0 9.7 0.00 0.00 0.00 47 1011.5
20260906091500 30 265 9.7 9.7 0.00 0.00 0.00 45 1011.6
20260906091000 30 258 6.4 9.7 0.00 0.00 0.00 45 1011.7
20260906090500 30 297 3.2 4.8 0.00 0.00 0.00 46 1011.8
20260906090000 30 245 8.0 9.7 0.00 0.00 0.00 45 1011.7
20260906085500 30 229 3.2 3.2 0.00 0.00 0.00 44 1011.8
20260906085001 29 242 8.0 8.0 0.00 0.00 0.00 51 1011.8
20260906084500 30 279 8.0 9.7 0.00 0.00 0.00 47 1011.8
20260906084000 30 190 3.2 8.0 0.00 0.00 0.00 47 1011.7
20260906083501 30 220 8.0 9.7 0.00 0.00 0.00 38 1011.6
20260906083001 30 250 3.2 11.3 0.00 0.00 0.00 42 1011.6
20260906082501 30 215 6.4 8.0 0.00 0.00 0.00 38 1011.7
20260906082001 30 260 9.7 9.7 0.00 0.00 0.00 42 1011.7
20260906081500 29 327 8.0 8.0 0.00 0.00 0.00 40 1011.7
20260906081001 29 196 0.0 4.8 0.00 0.00 0.00 40 1011.8
20260906080501 29 231 6.4 8.0 0.00 0.00 0.00 40 1011.7
20260906080000 30 203 4.8 8.0 0.00 0.00 0.00 39 1011.8
20260906075500 29 241 3.2 4.8 0.00 0.00 0.00 42 1011.7
20260906075000 29 251 4.8 8.0 0.00 0.00 0.00 37 1011.7
20260906074500 28 268 3.2 4.8 0.00 0.00 0.00 37 1011.7
20260906074001 28 271 6.4 9.7 0.00 0.00 0.00 37 1011.6
20260906073501 28 272 6.4 9.7 0.00 0.00 0.00 43 1011.6
20260906073000 29 217 6.4 8.0 0.00 0.00 0.00 39 1011.6
20260906072500 29 277 4.8 6.4 0.00 0.00 0.00 37 1011.6
20260906072001 28 216 4.8 6.4 0.00 0.00 0.00 40 1011.5
20260906071501 29 200 6.4 9.7 0.00 0.00 0.00 41 1011.4
20260906071001 30 267 4.8 6.4 0.00 0.00 0.00 38 1011.5
20260906070501 30 248 3.2 3.2 0.00 0.00 0.00 36 1011.3
20260906070001 29 252 4.8 6.4 0.00 0.00 0.00 36 1011.3
20260906065501 30 249 4.8 8.0 0.00 0.00 0.00 34 1011.3
20260906065001 31 251 3.2 3.2 0.00 0.00 0.00 33 1011.2
20260906064501 31 212 0.0 1.6 0.00 0.00 0.00 30 1011.1
20260906064000 31 224 0.0 0.0 0.00 0.00 0.00 29 1011.1
20260906063500 30 164 0.0 1.6 0.00 0.00 0.00 30 1011.0
20260906063001 30 100 1.6 1.6 0.00 0.00 0.00 30 1011.0
20260906062501 30 62 0.0 1.6 0.00 0.00 0.00 30 1010.9
20260906062000 29 13 3.2 3.2 0.00 0.00 0.00 31 1010.7
20260906061501 29 8 0.0 1.6 0.00 0.00 0.00 31 1010.7
20260906061001 29 287 1.6 3.2 0.00 0.00 0.00 32 1010.8
20260906060501 29 230 3.2 3.2 0.00 0.00 0.00 31 1010.7
20260906060000 29 231 0.0 1.6 0.00 0.00 0.00 31 1010.6
20260906055501 28 278 1.6 3.2 0.00 0.00 0.00 30 1010.5
20260906055000 28 219 1.6 1.6 0.00 0.00 0.00 30 1010.5
20260906054500 28 255 0.0 0.0 0.00 0.00 0.00 31 1010.5
20260906054000 28 114 0.0 1.6 0.00 0.00 0.00 31 1010.4
20260906053500 27 210 6.4 6.4 0.00 0.00 0.00 31 1010.5
20260906053000 27 227 3.2 4.8 0.00 0.00 0.00 32 1010.4
20260906052501 27 211 3.2 3.2 0.00 0.00 0.00 32 1010.4
20260906052001 28 177 3.2 4.8 0.00 0.00 0.00 30 1010.4
20260906051501 27 196 3.2 6.4 0.00 0.00 0.00 31 1010.3
20260906051000 26 8 0.0 0.0 0.00 0.00 0.00 31 1010.3
20260906050500 26 35 3.2 3.2 0.00 0.00 0.00 31 1010.3
20260906050001 26 100 3.2 4.8 0.00 0.00 0.00 31 1010.4
20260906045500 26 131 3.2 3.2 0.00 0.00 0.00 30 1010.3
20260906045001 26 24 3.2 3.2 0.00 0.00 0.00 31 1010.3
20260906044500 25 113 0.0 0.0 0.00 0.00 0.00 31 1010.2
20260906044001 25 250 1.6 3.2 0.00 0.00 0.00 33 1010.3
20260906043501 25 265 1.6 3.2 0.00 0.00 0.00 32 1010.2
20260906043000 25 229 1.6 1.6 0.00 0.00 0.00 32 1010.0
20260906042501 25 257 3.2 4.8 0.00 0.00 0.00 33 1010.0
20260906042000 25 209 4.8 4.8 0.00 0.00 0.00 32 1009.9
20260906041500 25 201 4.8 6.4 0.00 0.00 0.00 33 1010.0
20260906041001 25 194 4.8 4.8 0.00 0.00 0.00 33 1009.8
20260906040500 25 208 4.8 4.8 0.00 0.00 0.00 33 1009.9
20260906040001 25 229 6.4 8.0 0.00 0.00 0.00 33 1009.9
20260906035501 25 203 3.2 4.8 0.00 0.00 0.00 33 1009.8
20260906035000 25 277 8.0 9.7 0.00 0.00 0.00 34 1009.8
20260906034500 25 246 4.8 6.4 0.00 0.00 0.00 32 1009.7
20260906034000 26 236 6.4 8.0 0.00 0.00 0.00 32 1009.7
20260906033501 26 289 3.2 4.8 0.00 0.00 0.00 32 1009.7
20260906033000 26 278 4.8 4.8 0.00 0.00 0.00 32 1009.6
20260906032500 25 355 3.2 8.0 0.00 0.00 0.00 31 1009.6
20260906032001 25 251 3.2 4.8 0.00 0.00 0.00 30 1009.6
20260906031501 26 305 1.6 3.2 0.00 0.00 0.00 30 1009.6
20260906031000 26 345 0.0 1.6 0.00 0.00 0.00 29 1009.7
20260906030500 26 282 1.6 1.6 0.00 0.00 0.00 29 1009.6
20260906030001 25 184 3.2 3.2 0.00 0.00 0.00 30 1009.5
20260906025501 25 178 3.2 4.8 0.00 0.00 0.00 30 1009.4
20260906025001 25 209 4.8 6.4 0.00 0.00 0.00 31 1009.5
20260906024500 25 187 4.8 4.8 0.00 0.00 0.00 32 1009.2
20260906024001 26 237 6.4 6.4 0.00 0.00 0.00 31 1009.2
20260906023501 26 317 6.4 6.4 0.00 0.00 0.00 31 1009.3
20260906023001 25 253 1.6 3.2 0.00 0.00 0.00 31 1009.3
20260906022501 25 330 0.0 3.2 0.00 0.00 0.00 31 1009.4
20260906022001 25 337 3.2 6.4 0.00 0.00 0.00 31 1009.4
20260906021501 26 6 4.8 4.8 0.00 0.00 0.00 32 1009.4
20260906021001 26 279 1.6 3.2 0.00 0.00 0.00 32 1009.3
20260906020501 26 20 1.6 3.2 0.00 0.00 0.00 32 1009.3
20260906020000 26 342 0.0 3.2 0.00 0.00 0.00 32 1009.3
20260906015501 26 339 0.0 3.2 0.00 0.00 0.00 32 1009.2
20260906015001 26 66 0.0 3.2 0.00 0.00 0.00 32 1009.4
20260906014501 26 269 0.0 1.6 0.00 0.00 0.00 32 1009.4
20260906014001 26 135 0.0 0.0 0.00 0.00 0.00 32 1009.3
20260906013500 26 126 3.2 3.2 0.00 0.00 0.00 31 1009.5
20260906013001 26 303 0.0 1.6 0.00 0.00 0.00 31 1009.5
20260906012500 26 4 1.6 1.6 0.00 0.00 0.00 32 1009.5
20260906012001 26 102 0.0 0.0 0.00 0.00 0.00 32 1009.6
20260906011500 26 119 0.0 0.0 0.00 0.00 0.00 33 1009.6
20260906011000 26 19 0.0 1.6 0.00 0.00 0.00 34 1009.6
20260906010501 26 251 0.0 1.6 0.00 0.00 0.00 34 1009.6
20260906010000 26 113 0.0 0.0 0.00 0.00 0.00 34 1009.7
20260906005500 26 133 3.2 3.2 0.00 0.00 0.00 37 1009.6
20260906005001 26 87 3.2 3.2 0.00 0.00 0.00 39 1009.6
20260906004501 26 56 0.0 1.6 0.00 0.00 0.00 41 1009.7
20260906004001 26 48 0.0 3.2 0.00 0.00 0.00 40 1009.8
20260906003501 26 18 1.6 1.6 0.00 0.00 0.00 41 1009.7
20260906003000 26 137 1.6 1.6 0.00 0.00 0.00 40 1009.7
20260906002501 26 294 1.6 3.2 0.00 0.00 0.00 40 1009.7
20260906002001 26 341 0.0 1.6 0.00 0.00 0.00 34 1009.6
20260906001501 26 16 0.0 3.2 0.00 0.00 0.00 34 1009.7
20260906001001 26 12 3.2 3.2 0.00 0.00 0.00 37 1009.6
20260906000500 26 300 3.2 3.2 0.00 0.00 0.00 37 1009.7
20260906000000 26 260 3.2 6.4 0.00 0.00 0.00 38 1009.8
20260905235501 27 259 3.2 3.2 0.00 0.00 0.00 32 1009.7
20260905235000 26 334 0.0 1.6 0.00 0.00 0.00 32 1009.7
20260905234500 27 258 1.6 3.2 0.00 0.00 0.00 31 1009.7
20260905234000 27 219 0.0 0.0 0.00 0.00 0.00 30 1009.8
20260905233500 27 309 0.0 0.0 0.00 0.00 0.00 30 1009.9
20260905233000 26 71 0.0 3.2 0.00 0.00 0.00 35 1009.9
20260905232500 26 25 0.0 0.0 0.00 0.00 0.00 37 1009.9
20260905232001 27 333 0.0 0.0 0.00 0.00 0.00 36 1010.0
20260905231500 26 333 0.0 0.0 0.00 0.00 0.00 36 1010.1
20260905231001 26 129 0.0 0.0 0.00 0.00 0.00 36 1010.1
20260905230501 26 114 0.0 1.6 0.00 0.00 0.00 38 1010.1
20260905230000 26 242 0.0 0.0 0.00 0.00 0.00 38 1010.2
20260905225500 26 44 0.0 0.0 0.00 0.00 0.00 38 1010.2
20260905225001 26 304 0.0 0.0 0.00 0.00 0.00 38 1010.2
20260905224501 26 55 0.0 0.0 0.00 0.00 0.00 38 1010.3
20260905224001 26 58 1.6 3.2 0.00 0.00 0.00 39 1010.3
20260905223501 26 224 0.0 0.0 0.00 0.00 0.00 39 1010.3
20260905223000 26 247 3.2 3.2 0.00 0.00 0.00 39 1010.4
20260905222501 27 196 4.8 4.8 0.00 0.00 0.00 38 1010.4
20260905222001 27 195 4.8 4.8 0.00 0.00 0.00 34 1010.4
20260905221500 27 201 1.6 3.2 0.00 0.00 0.00 31 1010.4
20260905221000 27 207 4.8 6.4 0.00 0.00 0.00 32 1010.4
20260905220500 27 142 0.0 0.0 0.00 0.00 0.00 30 1010.3
20260905220000 27 142 0.0 0.0 0.00 0.00 0.00 30 1010.3
20260905215500 27 154 0.0 0.0 0.00 0.00 0.00 30 1010.3
20260905215001 27 322 0.0 0.0 0.00 0.00 0.00 31 1010.4
20260905214501 27 228 0.0 0.0 0.00 0.00 0.00 30 1010.3
20260905214000 27 121 0.0 3.2 0.00 0.00 0.00 30 1010.5
20260905213500 27 332 3.2 3.2 0.00 0.00 0.00 30 1010.4
20260905213001 27 324 1.6 1.6 0.00 0.00 0.00 30 1010.5
20260905212501 27 12 1.6 1.6 0.00 0.00 0.00 31 1010.4
20260905212000 27 12 3.2 3.2 0.00 0.00 0.00 31 1010.5
20260905211500 27 19 3.2 3.2 0.00 0.00 0.00 31 1010.6
20260905211001 28 334 3.2 3.2 0.00 0.00 0.00 31 1010.5
20260905210500 28 44 0.0 0.0 0.00 0.00 0.00 31 1010.5
20260905210000 28 60 3.2 3.2 0.00 0.00 0.00 31 1010.5
20260905205500 27 329 1.6 3.2 0.00 0.00 0.00 31 1010.6
20260905205000 27 65 3.2 3.2 0.00 0.00 0.00 31 1010.6
20260905204501 27 105 4.8 4.8 0.00 0.00 0.00 31 1010.5
20260905204001 28 113 6.4 6.4 0.00 0.00 0.00 30 1010.4
20260905203500 28 99 4.8 6.4 0.00 0.00 0.00 30 1010.4
20260905203001 28 74 3.2 4.8 0.00 0.00 0.00 31 1010.4
20260905202501 28 74 1.6 1.6 0.00 0.00 0.00 33 1010.4
20260905202001 28 96 3.2 4.8 0.00 0.00 0.00 34 1010.4
20260905201501 27 123 1.6 3.2 0.00 0.00 0.00 34 1010.4
20260905201000 27 148 3.2 3.2 0.00 0.00 0.00 35 1010.4
20260905200500 28 162 1.6 1.6 0.00 0.00 0.00 35 1010.4
20260905200001 28 143 1.6 1.6 0.00 0.00 0.00 35 1010.4
20260905195501 28 0 3.2 3.2 0.00 0.00 0.00 34 1010.3
20260905195001 28 17 3.2 3.2 0.00 0.00 0.00 33 1010.4
20260905194501 28 283 3.2 4.8 0.00 0.00 0.00 32 1010.4
20260905194001 28 333 3.2 3.2 0.00 0.00 0.00 31 1010.5
20260905193500 28 323 1.6 1.6 0.00 0.00 0.00 31 1010.5
20260905193000 28 150 8.0 8.0 0.00 0.00 0.00 31 1010.5
20260905192500 28 141 9.7 11.3 0.00 0.00 0.00 31 1010.4
20260905192001 28 133 6.4 6.4 0.00 0.00 0.00 30 1010.5
20260905191501 28 100 3.2 3.2 0.00 0.00 0.00 30 1010.6
20260905191000 28 48 3.2 4.8 0.00 0.00 0.00 30 1010.6
20260905190501 29 49 4.8 6.4 0.00 0.00 0.00 29 1010.6
20260905190001 29 119 3.2 4.8 0.00 0.00 0.00 29 1010.5
20260905185500 29 336 3.2 3.2 0.00 0.00 0.00 28 1010.6
20260905185001 29 253 3.2 3.2 0.00 0.00 0.00 28 1010.5
20260905184501 29 272 3.2 4.8 0.00 0.00 0.00 28 1010.4
20260905184001 29 275 3.2 4.8 0.00 0.00 0.00 28 1010.3
20260905183501 29 283 3.2 8.0 0.00 0.00 0.00 27 1010.3
20260905183001 30 263 3.2 3.2 0.00 0.00 0.00 27 1010.3
20260905182500 30 327 6.4 6.4 0.00 0.00 0.00 26 1010.3
20260905182001 30 263 3.2 6.4 0.00 0.00 0.00 25 1010.3
20260905181501 30 295 8.0 8.0 0.00 0.00 0.00 25 1010.2
20260905181000 30 28 4.8 4.8 0.00 0.00 0.00 25 1010.1
20260905180501 30 327 6.4 11.3 0.00 0.00 0.00 25 1010.1
20260905180001 30 22 9.7 11.3 0.00 0.00 0.00 25 1010.1
20260905175500 30 1 4.8 4.8 0.00 0.00 0.00 26 1010.0
20260905175000 30 291 0.0 3.2 0.00 0.00 0.00 26 1010.0
20260905174500 30 93 4.8 4.8 0.00 0.00 0.00 26 1010.0
20260905174001 30 0 4.8 6.4 0.00 0.00 0.00 26 1010.0
20260905173501 30 299 1.6 1.6 0.00 0.00 0.00 26 1010.0
20260905173000 30 28 6.4 6.4 0.00 0.00 0.00 26 1010.0
20260905172501 30 55 0.0 3.2 0.00 0.00 0.00 26 1009.9
20260905172000 30 0 4.8 4.8 0.00 0.00 0.00 27 1009.7
20260905171500 30 56 4.8 6.4 0.00 0.00 0.00 27 1009.7
20260905171000 30 47 0.0 3.2 0.00 0.00 0.00 27 1009.6
20260905170501 30 42 6.4 8.0 0.00 0.00 0.00 27 1009.5
20260905170001 30 56 8.0 12.9 0.00 0.00 0.00 27 1009.7
20260905165501 30 62 8.0 12.9 0.00 0.00 0.00 27 1009.6
20260905165001 31 132 1.6 6.4 0.00 0.00 0.00 27 1009.5
20260905164501 31 37 1.6 3.2 0.00 0.00 0.00 28 1009.6
20260905164001 31 87 4.8 6.4 0.00 0.00 0.00 29 1009.6
20260905163500 31 62 6.4 9.7 0.00 0.00 0.00 28 1009.6
20260905163001 31 54 6.4 8.0 0.00 0.00 0.00 26 1009.5
20260905162501 31 81 3.2 4.8 0.00 0.00 0.00 26 1009.5
20260905162001 31 9 11.3 14.5 0.00 0.00 0.00 25 1009.7
20260905161501 31 1 20.9 20.9 0.00 0.00 0.00 25 1009.7
20260905161001 31 0 9.7 9.7 0.00 0.00 0.00 25 1009.7
20260905160500 31 57 6.4 11.3 0.00 0.00 0.00 25 1009.7
20260905160000 31 21 8.0 12.9 0.00 0.00 0.00 25 1009.7
20260905155500 32 43 8.0 8.0 0.00 0.00 0.00 25 1009.7
20260905155001 32 71 4.8 6.4 0.00 0.00 0.00 26 1009.7
20260905154515 32 358 14.5 16.1 0.00 0.00 0.00 25 1009.7
20260905154001 32 11 14.5 14.5 0.00 0.00 0.00 25 1009.8
20260905153501 32 357 4.8 8.0 0.00 0.00 0.00 25 1009.8
20260905153000 32 54 9.7 11.3 0.00 0.00 0.00 25 1009.7
20260905152500 32 339 3.2 4.8 0.00 0.00 0.00 25 1009.7
20260905152001 32 358 12.9 12.9 0.00 0.00 0.00 25 1009.8
20260905151501 32 37 4.8 9.7 0.00 0.00 0.00 25 1009.8
20260905151000 32 30 11.3 12.9 0.00 0.00 0.00 25 1009.7
20260905150500 32 5 6.4 9.7 0.00 0.00 0.00 26 1009.8
20260905150001 32 0 11.3 20.9 0.00 0.00 0.00 26 1009.6
20260905145500 32 5 8.0 11.3 0.00 0.00 0.00 26 1009.7
20260905145000 32 38 8.0 9.7 0.00 0.00 0.00 26 1009.6
20260905144501 32 358 9.7 12.9 0.00 0.00 0.00 27 1009.6
20260905144000 32 341 4.8 8.0 0.00 0.00 0.00 27 1009.5
20260905143501 32 336 12.9 14.5 0.00 0.00 0.00 26 1009.6
20260905143001 32 343 8.0 9.7 0.00 0.00 0.00 27 1009.5
20260905142501 32 46 12.9 17.7 0.00 0.00 0.00 26 1009.5
20260905142001 32 56 8.0 9.7 0.00 0.00 0.00 26 1009.5
20260905141500 32 27 11.3 14.5 0.00 0.00 0.00 27 1009.5
20260905141001 32 11 16.1 24.1 0.00 0.00 0.00 27 1009.5
20260905140501 32 321 6.4 6.4 0.00 0.00 0.00 27 1009.4
20260905140000 32 5 4.8 11.3 0.00 0.00 0.00 27 1009.6
20260905135501 32 347 6.4 9.7 0.00 0.00 0.00 26 1009.4
20260905135001 32 3 6.4 11.3 0.00 0.00 0.00 27 1009.6
20260905134500 32 342 9.7 12.9 0.00 0.00 0.00 26 1009.6
20260905134001 33 343 12.9 14.5 0.00 0.00 0.00 26 1009.5
20260905133501 32 271 4.8 9.7 0.00 0.00 0.00 26 1009.7
20260905133001 32 6 4.8 16.1 0.00 0.00 0.00 26 1009.7
20260905132501 32 352 11.3 14.5 0.00 0.00 0.00 26 1009.7
20260905132001 32 301 14.5 14.5 0.00 0.00 0.00 26 1009.8
20260905131501 32 14 4.8 9.7 0.00 0.00 0.00 25 1009.6
20260905131001 32 4 6.4 9.7 0.00 0.00 0.00 25 1009.8
20260905130501 32 37 12.9 22.5 0.00 0.00 0.00 26 1009.9
20260905130001 32 16 9.7 16.1 0.00 0.00 0.00 26 1009.8
20260905125500 32 5 6.4 9.7 0.00 0.00 0.00 26 1009.9
20260905125001 32 24 12.9 19.3 0.00 0.00 0.00 25 1009.9
20260905124501 32 40 11.3 16.1 0.00 0.00 0.00 26 1009.9
20260905124000 32 32 16.1 17.7 0.00 0.00 0.00 26 1010.1
20260905123500 32 20 14.5 17.7 0.00 0.00 0.00 27 1009.9
20260905123001 32 349 9.7 14.5 0.00 0.00 0.00 27 1010.1
20260905122501 32 351 19.3 22.5 0.00 0.00 0.00 27 1010.0
20260905122000 32 50 12.9 14.5 0.00 0.00 0.00 27 1010.2
20260905121500 32 0 20.9 27.4 0.00 0.00 0.00 27 1010.1
20260905121001 32 15 11.3 14.5 0.00 0.00 0.00 27 1010.2
20260905120501 32 3 16.1 19.3 0.00 0.00 0.00 27 1010.3
20260905120001 32 10 11.3 17.7 0.00 0.00 0.00 27 1010.2
20260905115500 32 4 16.1 20.9 0.00 0.00 0.00 27 1010.3
20260905115000 32 16 17.7 19.3 0.00 0.00 0.00 26 1010.3
20260905114501 32 25 24.1 30.6 0.00 0.00 0.00 26 1010.3
20260905114000 31 13 6.4 14.5 0.00 0.00 0.00 27 1010.4
20260905113501 32 51 9.7 11.3 0.00 0.00 0.00 27 1010.4
20260905113001 32 29 14.5 17.7 0.00 0.00 0.00 27 1010.3
20260905112501 32 355 17.7 29.0 0.00 0.00 0.00 27 1010.3
20260905112000 31 353 14.5 20.9 0.00 0.00 0.00 27 1010.3
20260905111500 31 325 22.5 24.1 0.00 0.00 0.00 27 1010.3
20260905111001 31 345 11.3 20.9 0.00 0.00 0.00 27 1010.5
20260905110501 31 40 14.5 14.5 0.00 0.00 0.00 25 1010.4
20260905110001 31 353 6.4 8.0 0.00 0.00 0.00 26 1010.5
20260905105501 31 28 19.3 25.7 0.00 0.00 0.00 26 1010.6
20260905105000 31 335 19.3 24.1 0.00 0.00 0.00 25 1010.5
20260905104501 31 1 6.4 17.7 0.00 0.00 0.00 26 1010.6